Time,TemperatureF,DewpointF,PressureIn,WindDirection,WindDirectionDegrees,WindSpeedMPH,WindSpeedGustMPH,Humidity,HourlyPrecipIn,Conditions,Clouds,dailyrainin,SoftwareType,DateUTC
2013-09-01 00:02:00,66.8,67.0,29.81,NNE,23,0.0,0.0,99,0.00,,,0.00,weatherlink.com 1.10,2013-09-01 04:02:00,
2013-09-01 00:17:00,67.0,67.0,29.81,NNE,23,0.0,0.0,99,0.00,,,0.00,weatherlink.com 1.10,2013-09-01 04:17:00,
2013-09-01 00:32:00,67.2,67.0,29.81,NNE,23,0.0,0.0,99,0.00,,,0.00,weatherlink.com 1.10,2013-09-01 04:32:00,
2013-09-01 00:48:00,67.4,67.0,29.82,NNE,23,0.0,0.0,99,0.00,,,0.00,weatherlink.com 1.10,2013-09-01 04:48:00,
2013-09-01 01:03:00,67.3,67.0,29.81,NNE,23,0.0,0.0,99,0.00,,,0.00,weatherlink.com 1.10,2013-09-01 05:03:00,
2013-09-01 01:18:00,67.0,67.0,29.80,NNE,23,0.0,1.0,99,0.00,,,0.00,weatherlink.com 1.10,2013-09-01 05:18:00,
2013-09-01 01:33:00,66.9,67.0,29.81,NNE,23,0.0,0.0,99,0.00,,,0.00,weatherlink.com 1.10,2013-09-01 05:33:00,
2013-09-01 01:48:00,66.6,66.0,29.81,NNE,23,0.0,0.0,99,0.00,,,0.00,weatherlink.com 1.10,2013-09-01 05:48:00,
2013-09-01 02:03:00,66.5,66.0,29.81,NNE,23,0.0,0.0,99,0.00,,,0.00,weatherlink.com 1.10,2013-09-01 06:03:00,
2013-09-01 02:18:00,66.6,66.0,29.81,NNE,23,0.0,0.0,99,0.00,,,0.00,weatherlink.com 1.10,2013-09-01 06:18:00,
2013-09-01 02:33:00,66.8,67.0,29.82,NNE,23,0.0,0.0,99,0.00,,,0.00,weatherlink.com 1.10,2013-09-01 06:33:00,
2013-09-01 02:48:00,66.9,67.0,29.81,NNE,23,0.0,0.0,99,0.00,,,0.00,weatherlink.com 1.10,2013-09-01 06:48:00,
2013-09-01 03:03:00,66.9,67.0,29.82,NNE,23,0.0,0.0,99,0.00,,,0.00,weatherlink.com 1.10,2013-09-01 07:03:00,
2013-09-01 03:18:00,66.9,67.0,29.81,NNE,23,0.0,0.0,99,0.00,,,0.00,weatherlink.com 1.10,2013-09-01 07:18:00,
2013-09-01 03:33:00,66.9,67.0,29.82,NNE,23,0.0,0.0,99,0.00,,,0.00,weatherlink.com 1.10,2013-09-01 07:33:00,
2013-09-01 03:48:00,66.7,66.0,29.81,NNE,23,0.0,2.0,99,0.00,,,0.00,weatherlink.com 1.10,2013-09-01 07:48:00,
2013-09-01 04:03:00,66.6,66.0,29.81,NNE,23,0.0,0.0,99,0.00,,,0.00,weatherlink.com 1.10,2013-09-01 08:03:00,
2013-09-01 04:19:00,66.4,66.0,29.81,NNE,23,0.0,1.0,99,0.00,,,0.00,weatherlink.com 1.10,2013-09-01 08:19:00,
2013-09-01 04:33:00,66.2,66.0,29.81,NNE,23,0.0,0.0,99,0.00,,,0.00,weatherlink.com 1.10,2013-09-01 08:33:00,
2013-09-01 04:48:00,66.1,66.0,29.82,NNE,23,0.0,0.0,99,0.00,,,0.00,weatherlink.com 1.10,2013-09-01 08:48:00,
2013-09-01 05:03:00,65.9,66.0,29.82,NNE,23,0.0,0.0,99,0.00,,,0.00,weatherlink.com 1.10,2013-09-01 09:03:00,
2013-09-01 05:18:00,65.6,65.0,29.83,NNE,23,0.0,0.0,99,0.00,,,0.00,weatherlink.com 1.10,2013-09-01 09:18:00,
2013-09-01 05:33:00,65.6,65.0,29.83,NNE,23,0.0,0.0,99,0.00,,,0.00,weatherlink.com 1.10,2013-09-01 09:33:00,
2013-09-01 05:48:00,65.9,66.0,29.83,ENE,67,0.0,4.0,99,0.00,,,0.00,weatherlink.com 1.10,2013-09-01 09:48:00,
2013-09-01 06:03:00,65.7,65.0,29.83,ENE,67,0.0,0.0,99,0.00,,,0.00,weatherlink.com 1.10,2013-09-01 10:03:00,
2013-09-01 06:18:00,65.2,65.0,29.83,ENE,67,0.0,0.0,99,0.00,,,0.00,weatherlink.com 1.10,2013-09-01 10:18:00,
2013-09-01 06:33:00,64.9,65.0,29.84,ENE,67,0.0,0.0,99,0.00,,,0.00,weatherlink.com 1.10,2013-09-01 10:33:00,
2013-09-01 06:48:00,64.7,64.0,29.84,ENE,67,0.0,0.0,99,0.00,,,0.00,weatherlink.com 1.10,2013-09-01 10:48:00,
2013-09-01 07:03:00,64.8,65.0,29.85,ENE,67,0.0,0.0,99,0.01,,,0.01,weatherlink.com 1.10,2013-09-01 11:03:00,
2013-09-01 07:18:00,65.1,65.0,29.85,ENE,67,0.0,0.0,100,0.01,,,0.01,weatherlink.com 1.10,2013-09-01 11:18:00,
2013-09-01 07:33:00,65.4,65.0,29.85,ENE,67,0.0,0.0,100,0.01,,,0.01,weatherlink.com 1.10,2013-09-01 11:33:00,
2013-09-01 07:48:00,66.0,66.0,29.84,ENE,67,0.0,0.0,100,0.01,,,0.01,weatherlink.com 1.10,2013-09-01 11:48:00,
2013-09-01 08:03:00,66.4,66.0,29.85,ENE,67,0.0,0.0,100,0.00,,,0.01,weatherlink.com 1.10,2013-09-01 12:03:00,
2013-09-01 08:18:00,67.2,67.0,29.85,ENE,57,0.0,0.0,100,0.00,,,0.01,weatherlink.com 1.10,2013-09-01 12:18:00,
2013-09-01 08:33:00,67.9,68.0,29.84,ENE,57,0.0,0.0,100,0.00,,,0.01,weatherlink.com 1.10,2013-09-01 12:33:00,
2013-09-01 08:48:00,68.6,69.0,29.84,ENE,57,0.0,0.0,100,0.00,,,0.01,weatherlink.com 1.10,2013-09-01 12:48:00,
2013-09-01 09:03:00,69.6,70.0,29.85,ENE,57,0.0,0.0,100,0.00,,,0.01,weatherlink.com 1.10,2013-09-01 13:03:00,
2013-09-01 09:18:00,70.3,70.0,29.85,ENE,57,0.0,0.0,100,0.00,,,0.01,weatherlink.com 1.10,2013-09-01 13:18:00,
2013-09-01 09:33:00,71.7,71.0,29.85,ENE,57,0.0,0.0,98,0.00,,,0.01,weatherlink.com 1.10,2013-09-01 13:33:00,
2013-09-01 09:48:00,72.7,71.0,29.86,ENE,57,0.0,0.0,95,0.00,,,0.01,weatherlink.com 1.10,2013-09-01 13:48:00,
2013-09-01 10:03:00,73.2,72.0,29.85,ESE,110,0.0,0.0,95,0.00,,,0.01,weatherlink.com 1.10,2013-09-01 14:03:00,
2013-09-01 10:18:00,73.8,72.0,29.85,SSE,151,0.0,0.0,93,0.00,,,0.01,weatherlink.com 1.10,2013-09-01 14:18:00,
2013-09-01 10:33:00,74.3,72.0,29.85,SSE,151,0.0,0.0,92,0.00,,,0.01,weatherlink.com 1.10,2013-09-01 14:33:00,
2013-09-01 10:49:00,74.9,72.0,29.85,SSE,151,0.0,0.0,91,0.00,,,0.01,weatherlink.com 1.10,2013-09-01 14:49:00,
2013-09-01 11:04:00,74.9,72.0,29.86,West,281,0.0,0.0,91,0.00,,,0.01,weatherlink.com 1.10,2013-09-01 15:04:00,
2013-09-01 11:19:00,75.0,72.0,29.85,SW,235,0.0,0.0,89,0.00,,,0.01,weatherlink.com 1.10,2013-09-01 15:19:00,
2013-09-01 11:34:00,75.4,72.0,29.85,SW,235,0.0,0.0,90,0.00,,,0.01,weatherlink.com 1.10,2013-09-01 15:34:00,
2013-09-01 11:49:00,75.5,72.0,29.85,South,189,0.0,0.0,88,0.00,,,0.01,weatherlink.com 1.10,2013-09-01 15:49:00,
2013-09-01 12:04:00,76.5,72.0,29.84,South,182,0.0,4.0,85,0.00,,,0.01,weatherlink.com 1.10,2013-09-01 16:04:00,
2013-09-01 12:19:00,77.1,72.0,29.84,South,178,0.0,3.0,84,0.00,,,0.01,weatherlink.com 1.10,2013-09-01 16:19:00,
2013-09-01 12:34:00,76.9,72.0,29.84,South,186,0.0,1.0,84,0.00,,,0.01,weatherlink.com 1.10,2013-09-01 16:34:00,
2013-09-01 12:49:00,77.3,74.0,29.83,South,186,1.0,2.0,88,0.00,,,0.01,weatherlink.com 1.10,2013-09-01 16:49:00,
2013-09-01 13:04:00,78.6,74.0,29.83,South,169,1.0,4.0,85,0.00,,,0.01,weatherlink.com 1.10,2013-09-01 17:04:00,
2013-09-01 13:19:00,78.7,73.0,29.84,SW,216,1.0,4.0,83,0.00,,,0.01,weatherlink.com 1.10,2013-09-01 17:19:00,
2013-09-01 13:34:00,77.9,73.0,29.84,South,189,1.0,4.0,84,0.00,,,0.01,weatherlink.com 1.10,2013-09-01 17:34:00,
2013-09-01 13:49:00,77.4,73.0,29.83,South,189,0.0,1.0,85,0.00,,,0.01,weatherlink.com 1.10,2013-09-01 17:49:00,
2013-09-01 14:04:00,78.0,73.0,29.83,South,189,0.0,1.0,85,0.00,,,0.01,weatherlink.com 1.10,2013-09-01 18:04:00,
2013-09-01 14:19:00,79.3,75.0,29.83,South,191,1.0,4.0,85,0.00,,,0.01,weatherlink.com 1.10,2013-09-01 18:19:00,
2013-09-01 14:34:00,82.2,75.0,29.82,ESE,111,0.0,2.0,79,0.00,,,0.01,weatherlink.com 1.10,2013-09-01 18:34:00,
2013-09-01 14:49:00,83.8,74.0,29.82,SSW,192,0.0,2.0,73,0.00,,,0.01,weatherlink.com 1.10,2013-09-01 18:49:00,
2013-09-01 15:04:00,81.5,74.0,29.82,South,178,0.0,3.0,78,0.00,,,0.01,weatherlink.com 1.10,2013-09-01 19:04:00,
2013-09-01 15:19:00,80.6,74.0,29.81,South,178,0.0,0.0,81,0.00,,,0.01,weatherlink.com 1.10,2013-09-01 19:19:00,
2013-09-01 15:34:00,80.1,74.0,29.81,South,179,0.0,2.0,81,0.00,,,0.01,weatherlink.com 1.10,2013-09-01 19:34:00,
2013-09-01 15:49:00,80.7,74.0,29.80,South,186,0.0,2.0,80,0.00,,,0.01,weatherlink.com 1.10,2013-09-01 19:49:00,
2013-09-01 16:04:00,81.1,74.0,29.80,South,180,0.0,1.0,79,0.00,,,0.01,weatherlink.com 1.10,2013-09-01 20:04:00,
2013-09-01 16:19:00,81.7,74.0,29.80,SW,229,0.0,2.0,77,0.00,,,0.01,weatherlink.com 1.10,2013-09-01 20:19:00,
2013-09-01 16:34:00,81.8,74.0,29.80,South,174,2.0,2.0,78,0.00,,,0.01,weatherlink.com 1.10,2013-09-01 20:34:00,
2013-09-01 16:49:00,81.6,74.0,29.80,SSE,168,3.0,4.0,78,0.00,,,0.01,weatherlink.com 1.10,2013-09-01 20:49:00,
2013-09-01 17:04:00,80.3,74.0,29.80,SSE,155,0.0,3.0,81,0.00,,,0.01,weatherlink.com 1.10,2013-09-01 21:04:00,
2013-09-01 17:19:00,80.1,73.0,29.80,South,188,0.0,3.0,80,0.00,,,0.01,weatherlink.com 1.10,2013-09-01 21:19:00,
2013-09-01 17:34:00,79.2,74.0,29.80,South,188,0.0,2.0,83,0.00,,,0.01,weatherlink.com 1.10,2013-09-01 21:34:00,
2013-09-01 17:49:00,78.0,73.0,29.80,ENE,66,0.0,3.0,85,0.00,,,0.01,weatherlink.com 1.10,2013-09-01 21:49:00,
2013-09-01 18:04:00,77.2,73.0,29.80,ENE,66,0.0,0.0,87,0.00,,,0.01,weatherlink.com 1.10,2013-09-01 22:04:00,
2013-09-01 18:19:00,77.0,73.0,29.81,ENE,66,0.0,1.0,88,0.00,,,0.01,weatherlink.com 1.10,2013-09-01 22:19:00,
2013-09-01 18:34:00,76.9,74.0,29.80,East,96,0.0,1.0,89,0.00,,,0.01,weatherlink.com 1.10,2013-09-01 22:34:00,
2013-09-01 18:49:00,76.7,73.0,29.80,East,88,0.0,1.0,89,0.00,,,0.01,weatherlink.com 1.10,2013-09-01 22:49:00,
2013-09-01 19:04:00,76.4,73.0,29.80,East,88,0.0,0.0,90,0.00,,,0.01,weatherlink.com 1.10,2013-09-01 23:04:00,
2013-09-01 19:19:00,75.6,73.0,29.80,East,88,0.0,1.0,91,0.00,,,0.01,weatherlink.com 1.10,2013-09-01 23:19:00,
2013-09-01 19:34:00,74.9,73.0,29.80,East,88,0.0,0.0,92,0.00,,,0.01,weatherlink.com 1.10,2013-09-01 23:34:00,
2013-09-01 19:49:00,74.5,72.0,29.80,East,88,0.0,0.0,93,0.00,,,0.01,weatherlink.com 1.10,2013-09-01 23:49:00,
2013-09-01 20:04:00,74.0,72.0,29.79,East,88,0.0,0.0,94,0.00,,,0.01,weatherlink.com 1.10,2013-09-02 00:04:00,
2013-09-01 20:19:00,73.6,72.0,29.80,East,88,0.0,0.0,95,0.00,,,0.01,weatherlink.com 1.10,2013-09-02 00:19:00,
2013-09-01 20:34:00,73.3,72.0,29.80,East,87,0.0,0.0,95,0.00,,,0.01,weatherlink.com 1.10,2013-09-02 00:34:00,
2013-09-01 20:49:00,72.7,71.0,29.80,East,87,0.0,0.0,95,0.00,,,0.01,weatherlink.com 1.10,2013-09-02 00:49:00,
2013-09-01 21:04:00,72.4,71.0,29.80,East,87,0.0,0.0,96,0.00,,,0.01,weatherlink.com 1.10,2013-09-02 01:04:00,
2013-09-01 21:19:00,72.3,71.0,29.80,East,87,0.0,0.0,97,0.00,,,0.01,weatherlink.com 1.10,2013-09-02 01:19:00,
2013-09-01 21:34:00,72.1,71.0,29.81,East,87,0.0,0.0,96,0.00,,,0.01,weatherlink.com 1.10,2013-09-02 01:34:00,
2013-09-01 21:49:00,71.9,71.0,29.81,East,87,0.0,0.0,97,0.00,,,0.01,weatherlink.com 1.10,2013-09-02 01:49:00,
2013-09-01 22:04:00,71.7,71.0,29.82,East,87,0.0,0.0,97,0.00,,,0.01,weatherlink.com 1.10,2013-09-02 02:04:00,
2013-09-01 22:19:00,71.3,70.0,29.81,East,87,0.0,0.0,97,0.00,,,0.01,weatherlink.com 1.10,2013-09-02 02:19:00,
2013-09-01 22:34:00,71.1,70.0,29.81,East,87,0.0,0.0,97,0.00,,,0.01,weatherlink.com 1.10,2013-09-02 02:34:00,
2013-09-01 22:49:00,70.8,70.0,29.81,East,87,0.0,0.0,97,0.00,,,0.01,weatherlink.com 1.10,2013-09-02 02:49:00,
2013-09-01 23:04:00,70.8,70.0,29.81,East,87,0.0,0.0,98,0.00,,,0.01,weatherlink.com 1.10,2013-09-02 03:04:00,
2013-09-01 23:19:00,70.6,70.0,29.80,East,87,0.0,0.0,98,0.00,,,0.01,weatherlink.com 1.10,2013-09-02 03:19:00,
2013-09-01 23:34:00,70.9,70.0,29.80,South,178,1.0,3.0,98,0.00,,,0.01,weatherlink.com 1.10,2013-09-02 03:34:00,
2013-09-01 23:49:00,71.3,71.0,29.80,South,180,0.0,2.0,99,0.00,,,0.01,weatherlink.com 1.10,2013-09-02 03:49:00,